{"data":{"norad_id":58220,"epoch":"2026-05-24T23:35:56.917824Z","epoch_age_seconds":76764,"freshness":"FRESH","line1":"1 58220U 23170Q   26144.98329766  .00015155  00000+0  10072-2 0  9995","line2":"2 58220  42.9991 139.0030 0004015  93.8497 266.2806 15.06990915141785","mean_motion":15.06990915,"eccentricity":0.0004015,"inclination_deg":42.9991,"raan_deg":139.003,"arg_perigee_deg":93.8497,"mean_anomaly_deg":266.2806,"bstar":0.0010072,"rev_number":14178,"period_min":95.554657009993,"perigee_km":542.62127984796,"apogee_km":548.18088092651,"semimajor_km":6923.5380803872,"source":"CELESTRAK","updated_at":"2026-05-25T13:38:18.576965Z"}}